Flag for Congo Dem.Rep. Weather past 2 weeks in Kinshasa, Congo Dem.Rep.

Now
84 °F

Passing clouds.


Feels Like: 87 °F
Forecast: 72 / 90 °F
Wind: 2 mph from North

Location: Brazzaville / Maya-Maya

Current Time: Sep 18, 2014 at 11:23:05 PM

Latest Report: Sep 18, 2014 at 10:00 PM


Visibility: 5 mi

Pressure: 29.95 "Hg

Humidity: 58%

Dew point: 68 °F

Location of KinshasaLocation

Historic Weather in Kinshasa — Graph

°F

Kinshasa temperature yesterday

Maximum temperature yesterday: 81 °F (at 2:00 PM)
Minimum temperature yesterday: 68 °F (at 4:00 AM)
Average temperature yesterday: 75 °F

Past Weeks' High & Low Weather Summary

 TemperatureHumidityPressure
High93 °F (Sep 13, 2:00 PM)94% (Sep 6, 5:00 AM)30.07 "Hg (Sep 6, 5:00 AM)
Low66 °F (Sep 5, 4:00 AM)41% (Sep 12, 1:00 AM)29.80 "Hg (Sep 13, 3:00 PM)
Average77 °F70%29.95 "Hg
* Reported Sep 3 9:00 PM — Sep 18 9:00 PM, Kinshasa, Weather by CustomWeather, © 2014

Note: Actual official high and low records may vary slightly from our data, if they occured in-between our weather recording intervals... More about our weather records

Advertising

Kinshasa weather history for previous 24 hours

 ConditionsComfort  
Time TempWeatherWind HumidityBarometerVisibility
9:00 PM
Sep 18
84 °FPassing clouds.3 mph58%29.95 "Hg5 mi
8:00 PM84 °FPassing clouds.5 mph58%29.92 "Hg5 mi
7:00 PM86 °FPassing clouds.1 mph55%29.89 "Hg5 mi
6:00 PM88 °FPassing clouds.3 mph49%29.86 "Hg4 mi
5:00 PM90 °FPassing clouds.5 mph46%29.86 "Hg5 mi
4:00 PM91 °FPassing clouds.5 mph46%29.83 "Hg5 mi
3:00 PM91 °FPassing clouds.3 mph46%29.86 "Hg5 mi
2:00 PM90 °FPassing clouds.6 mph46%29.92 "Hg4 mi
1:00 PM88 °FPassing clouds.3 mph49%29.92 "Hg4 mi
12:00 PM86 °FPassing clouds.6 mph55%29.95 "Hg4 mi
11:00 AM79 °FPartly sunny.5 mph65%30.01 "Hg4 mi
10:00 AM75 °FPartly sunny.5 mph78%30.04 "Hg4 mi
9:00 AM77 °FBroken clouds.7 mph74%30.04 "Hg4 mi
8:00 AM73 °FPartly sunny.6 mph78%30.04 "Hg4 mi
7:00 AM72 °FPartly sunny.No wind83%30.01 "Hg4 mi
6:00 AM70 °FPartly sunny.2 mph88%29.98 "Hg5 mi
5:00 AM70 °FPassing clouds.3 mph88%29.95 "Hg5 mi
4:00 AM70 °FPassing clouds.No wind88%29.95 "Hg5 mi
3:00 AM72 °FClear.2 mph83%29.95 "Hg5 mi
2:00 AM72 °FClear.2 mph88%29.95 "Hg5 mi
1:00 AM72 °FClear.2 mph83%29.95 "Hg5 mi
12:00 AM73 °FClear.3 mph78%29.98 "Hg5 mi
11:00 PM
Sep 17
75 °FPassing clouds.3 mph74%30.01 "Hg5 mi
Weather by CustomWeather, © 2014

See weather overviewHow to use our weather pages